User: anonymous   Login
Location: Unspecified
(0.0000°N, 0.0000°E)
Time: 19:05:54
(UTC+00:00)
Language:

STARLINK-5689 - Orbit

View from above orbital plane
View from above orbital plane
View from above satellite
View from above satellite

Ground track
Ground track

The orbit is defined by the following mean orbital elements,

1 55474U          26145.33736975 +.00000000 +00000-0 +77078-4 0 00002
2 55474  42.9994 267.1933 0001252 251.3601 108.7115 15.27561914    07
Epoch (UTC): 25 May 2026 08:05:48
Eccentricity: 0.0001252
inclination: 42.9994°
perigee height: 482 km
apogee height: 484 km
right ascension of ascending node: 267.1933°
argument of perigee: 251.3601°
revolutions per day: 15.27561914
mean anomaly at epoch: 108.7115°

The dashed part of the orbit path shows where the satellite is in the earth's shadow,  

DLR